Home > Weather > Lilienfeld > Past weeks

Flag for Austria Past Weather in Lilienfeld, Lower Austria, Austria — Yesterday and Last 2 Weeks

Now
54 °F

Fog.


Feels Like: 53 °F
Forecast: 54 / 76 °F
Wind: 3 mph from Southwest

Location: Tulln Airport

Current Time: Aug 25, 2016 at 6:51:00 AM

Latest Report: Aug 25, 2016 at 5:50 AM


Visibility: 0 mi

Pressure: 30.24 "Hg

Humidity: 94%

Dew Point: 52 °F

Location of LilienfeldLocation

Past Weather in Lilienfeld — Graph

°F

Lilienfeld Temperature Yesterday

Maximum temperature yesterday: 81 °F (at 2:50 PM)
Minimum temperature yesterday: 57 °F (at 5:50 AM)
Average temperature yesterday: 70 °F

High & Low Weather Summary for the Past Weeks

 TemperatureHumidityPressure
High86 °F (Aug 14, 4:50 PM)100% (Aug 10, 5:50 AM)30.36 "Hg (Aug 10, 5:50 AM)
Low46 °F (Aug 12, 5:50 AM)32% (Aug 18, 2:50 PM)29.80 "Hg (Aug 18, 3:50 PM)
Average68 °F69%30.11 "Hg
* Reported Aug 9 10:50 PM — Aug 24 10:50 PM, Lilienfeld, Weather by CustomWeather, © 2016

Note: Actual official high and low records may vary slightly from our data, if they occured in-between our weather recording intervals... More about our weather records

Advertising

Lilienfeld Weather History for the Previous 24 Hours

Scroll right to see more
 ConditionsComfort  
Time TempWeatherWind HumidityBarometerVisibility
10:50 PM
Wed, Aug 24
63 °FClear.1 mph83%30.24 "Hg25 mi
9:50 PM64 °FClear.2 mph83%30.24 "Hg25 mi
8:50 PM68 °FSunny.1 mph73%30.24 "Hg25 mi
7:50 PM72 °FSunny.2 mph61%30.24 "Hg25 mi
6:50 PM75 °FPassing clouds.6 mph57%30.24 "Hg25 mi
5:50 PM77 °FPassing clouds.8 mph54%30.24 "Hg25 mi
3:50 PM79 °FPassing clouds.7 mph48%30.24 "Hg25 mi
2:50 PM81 °FScattered clouds.8 mph42%30.27 "Hg22 mi
1:50 PM75 °FScattered clouds.7 mph61%30.30 "Hg19 mi
12:50 PM75 °FScattered clouds.6 mph61%30.30 "Hg19 mi
11:50 AM75 °FScattered clouds.6 mph61%30.30 "Hg19 mi
10:50 AM73 °FPassing clouds.5 mph65%30.30 "Hg19 mi
9:50 AM70 °FPassing clouds.2 mph69%30.33 "Hg19 mi
9:20 AM68 °FPassing clouds.2 mph73%30.33 "Hg19 mi
8:50 AM68 °FPassing clouds.2 mph78%30.33 "Hg16 mi
8:20 AM66 °FPassing clouds.3 mph83%30.33 "Hg16 mi
7:50 AM63 °FPassing clouds.3 mph88%30.33 "Hg16 mi
6:50 AM57 °FPassing clouds.2 mph94%30.30 "Hg12 mi
Weather by CustomWeather, © 2016

See weather overviewHow to use our weather pages